#timestamp,LO_Frequency,Hit 
1502240415.2,286047008.7,N
1502240435.0,286047007.7,N
1502240435.9,286047007.7,N
1502240455.8,286047008.1,N
1502240475.6,286047010.4,N
1502240495.4,286047009.7,N
1502240515.2,286047008.9,N
1502240535.1,286047009.2,N
1502240536.0,286047009.2,N
1502240555.8,286047008.7,N
1502240575.6,286047010.1,N
1502240595.5,286047008.4,N
1502240615.3,286047007.9,N
1502240635.1,286047010.1,N
1502240655.9,286047010.6,N
1502240675.7,286047008.2,N
1502240695.5,286047009.6,N
1502240715.4,286047010.0,N
1502240735.2,286047009.6,N
1502240755.0,286047009.6,N
1502240755.9,286047009.6,N
1502240775.8,286047010.5,N
1502240795.6,286047008.2,N
1502240815.4,286047007.9,N
1502240835.3,286047008.1,N
1502240855.1,286047008.9,N
1502240856.0,286047008.9,N
1502240875.8,286047007.9,N
1502240895.7,286047010.4,N
1502240915.5,286047010.3,N
1502240935.3,286047010.3,N
1502240955.2,286047006.5,N
1502240975.9,286047006.1,N
1502240995.7,286047007.9,N
1502241015.5,286047012.4,N
1502241035.4,286047017.2,N
1502241055.2,286047014.8,N
1502241075.0,286047013.0,N
1502241075.9,286047013.0,N
1502241095.8,286047012.8,N
1502241115.6,286047013.6,N
1502241135.4,286047012.2,N
1502241155.3,286047012.2,N
1502241175.1,286047011.7,N
1502241176.0,286047011.7,N
1502241195.8,286047013.4,N
1502241215.7,286047013.3,N
1502241235.5,286047011.1,N
1502241255.3,286047012.3,N
1502241275.1,286047011.7,N
1502241295.9,286047013.5,N
1502241315.7,286047011.7,N
1502241335.5,286047011.2,N
1502241355.4,286047011.9,N
1502241375.2,286047011.8,N
1502241395.0,286047010.5,N
1502241395.9,286047010.5,N
1502241415.8,286047011.5,N
1502241435.6,286047012.8,N
1502241455.4,286047015.1,N
1502241475.3,286047014.3,N
1502241495.1,286047016.3,N
1502241496.0,286047016.3,N
1502241515.8,286047016.5,N
1502241535.7,286047015.9,N
1502241555.5,286047018.6,N
1502241575.3,286047017.6,N
1502241595.1,286047014.9,N
1502241615.9,286047015.4,N
1502241635.7,286047015.4,N
1502241655.5,286047016.4,N
1502241675.4,286047013.3,N
1502241695.2,286047011.1,N
1502241715.0,286047010.9,N
1502241715.9,286047010.9,N
1502241735.8,286047012.5,N
1502241755.6,286047013.8,N
1502241775.4,286047015.5,N
1502241795.6,286047017.1,N
1502241815.4,286047016.5,N
1502241835.3,286047018.2,N
1502241855.1,286047018.6,N
1502241856.0,286047018.6,N
1502241875.8,286047018.3,N
1502241895.7,286047014.9,N
1502241915.5,286047014.6,N
1502241935.3,286047016.9,N
1502241955.1,286047016.2,N
1502241975.9,286047014.1,N
1502241995.7,286047014.5,N
1502242015.5,286047018.4,N
1502242035.4,286047017.7,N
1502242055.2,286047019.2,N
1502242075.0,286047021.6,N
1502242075.9,286047021.6,N
1502242095.8,286047023.6,N
1502242115.6,286047023.1,N
1502242135.4,286047022.3,N
1502242155.3,286047024.7,N
1502242175.1,286047025.2,N
1502242176.0,286047025.2,N
1502242195.8,286047024.4,N
1502242215.6,286047026.4,N
1502242235.5,286047025.9,N
1502242255.3,286047025.5,N
1502242275.1,286047027.7,N
1502242295.9,286047024.2,N
1502242315.7,286047022.2,N
1502242335.5,286047020.9,N
1502242355.4,286047022.6,N
1502242375.2,286047023.6,N
1502242395.0,286047020.2,N
1502242395.9,286047020.2,N
1502242415.8,286047015.8,N
1502242435.6,286047016.3,N
1502242455.4,286047018.1,N
1502242475.3,286047019.5,N
1502242495.1,286047017.5,N
1502242496.0,286047017.5,N
1502242515.8,286047016.6,N
1502242535.7,286047021.9,N
1502242555.5,286047021.2,N
1502242575.3,286047022.1,N
1502242595.1,286047024.9,N
1502242615.9,286047022.3,N
1502242635.7,286047022.8,N
1502242655.5,286047021.0,N
1502242675.4,286047021.7,N
1502242695.2,286047022.5,N
1502242715.0,286047025.6,N
1502242715.9,286047025.6,N
1502242735.8,286047025.2,N
1502242755.6,286047020.6,N
1502242775.4,286047019.1,N
1502242795.3,286047021.0,N
1502242815.1,286047021.9,N
1502242816.0,286047021.9,N
1502242835.8,286047021.9,N
1502242855.6,286047021.3,N
1502242875.5,286047020.8,N
1502242895.3,286047020.8,N
1502242915.1,286047021.9,N
1502242935.9,286047021.3,N
1502242955.7,286047023.4,N
1502242975.5,286047022.4,N
1502242995.4,286047020.8,N
1502243015.2,286047021.2,N
1502243035.0,286047025.1,N
1502243035.9,286047025.1,N
1502243055.8,286047026.8,N
1502243075.6,286047024.0,N
1502243095.4,286047026.6,N
1502243115.2,286047024.5,N
1502243135.1,286047024.8,N
1502243136.0,286047024.8,N
1502243155.8,286047022.1,N
1502243175.6,286047022.3,N
1502243195.5,286047022.9,N
1502243215.3,286047020.9,N
1502243235.1,286047021.7,N
1502243255.9,286047023.6,N
1502243275.7,286047023.4,N
1502243295.5,286047024.9,N
1502243315.4,286047024.5,N
1502243335.2,286047027.4,N
1502243355.0,286047024.1,N
1502243355.9,286047024.1,N
1502243375.8,286047024.7,N
1502243395.6,286047023.1,N
1502243415.4,286047023.3,N
1502243435.2,286047024.6,N
1502243455.1,286047022.5,N
1502243456.0,286047022.5,N
1502243475.9,286047023.6,N
1502243495.7,286047022.8,N
1502243515.5,286047021.2,N
1502243535.4,286047019.3,N
1502243555.2,286047019.3,N
1502243575.0,286047021.3,N
1502243575.9,286047021.3,N
1502243595.7,286047022.2,N
1502243615.6,286047026.4,N
1502243635.4,286047025.7,N
1502243655.2,286047025.4,N
1502243675.1,286047027.1,N
1502243676.0,286047027.1,N
1502243695.8,286047027.3,N
1502243715.6,286047026.1,N
1502243735.5,286047023.9,N
1502243755.3,286047024.3,N
1502243775.1,286047024.5,N
1502243795.9,286047025.1,N
1502243815.7,286047024.9,N
1502243835.5,286047022.1,N
1502243855.4,286047024.6,N
1502243875.2,286047024.7,N
1502243895.0,286047024.8,N
1502243895.9,286047024.8,N
1502243915.8,286047022.1,N
1502243935.6,286047023.9,N
1502243955.4,286047024.3,N
1502243975.2,286047026.0,N
1502243995.1,286047024.2,N
1502243996.0,286047024.2,N
